Location: Braye
(49.7792°N, 3.9596°E)
Time: 08:56:26
(UTC+00:00)

Daily predictions for brighter satellites

Satellite Brightness Start Highest point End
(mag) Time Altitude Azimuth Time Altitude Azimuth Time Altitude Azimuth
Cosmos 1464 Rocket 4.1 16:11:04 10° S 16:17:16 83° W 16:23:26 10° N
CBERS-1 4.0 16:16:22 10° SSE 16:21:25 67° ENE 16:26:31 10° N
Cosmos 1626 Rocket 4.4 16:19:50 10° N 16:23:35 27° ENE 16:27:18 10° SE
Cosmos 1892 Rocket 3.6 16:20:29 10° N 16:24:58 78° E 16:29:25 10° SSE
Thor Agena Rocket 3.7 16:21:21 10° SE 16:26:27 56° ENE 16:31:32 10° N
Cosmos 1356 Rocket 3.8 16:27:17 10° SSE 16:31:03 40° E 16:34:53 10° NNE
ARIANE 6 FM1 Upper Stage 2.7 16:27:49 10° NW 16:31:49 81° SW 16:35:49 10° SE
Cosmos 158 Rocket 4.2 16:27:23 10° NNW 16:32:28 74° WSW 16:37:23 10° SSE
Cosmos 1092 Rocket 3.9 16:26:33 10° N 16:32:45 73° E 16:38:52 10° SSE
Cosmos 292 Rocket 3.8 16:28:57 10° SSW 16:33:44 78° ESE 16:38:33 10° NNE
Cosmos 2279 Rocket 4.5 16:28:41 10° SSE 16:34:18 38° E 16:39:58 10° NNE
Iridium 45 4.1 16:31:10 10° S 16:34:18 78° E 16:37:30 10° N
CZ-4C R/B 3.3 16:29:00 10° NW 16:34:51 38° NNE 16:42:09 10° E
Cosmos 968 Rocket 4.4 16:29:56 10° SW 16:34:57 47° WNW 16:40:01 10° NNE
Cosmos 1315 Rocket 3.0 16:32:42 10° S 16:36:22 46° E 16:40:04 10° NNE
BlueWalker 3 1.9 16:32:59 10° WNW 16:36:36 59° NNE 16:40:11 10° E
Cosmos 2263 Rocket 3.8 16:38:11 10° N 16:41:25 15° NNE 16:44:07 11° ENE
Cosmos 1484 Rocket 2.8 16:38:01 10° S 16:41:33 71° WSW 16:45:04 10° NNW
Cosmos 1544 Rocket 4.4 16:38:17 10° SSE 16:42:03 29° E 16:45:51 10° NNE
NOSS 3-2 (A) 3.9 16:37:54 10° S 16:42:18 32° ESE 16:47:01 12° ENE
Cosmos 2034 Rocket 4.2 16:37:17 10° SSW 16:43:35 80° W 16:50:00 10° N
SJ-12 4.2 16:43:04 10° SE 16:46:34 38° ENE 16:50:07 10° N
SAR-Lupe-4 3.9 16:43:29 10° SE 16:46:50 41° ENE 16:50:13 10° N
Cosmos 2227 Rocket 3.4 16:43:00 10° N 16:47:20 22° NE 16:51:16 11° E
Intercosmos 24 3.9 16:45:21 10° N 16:49:38 52° ENE 16:53:09 10° SSE
Cosmos 1733 3.8 16:52:21 13° ESE 16:52:21 13° ESE 16:52:49 10° SE
SAR-Lupe-1 4.4 16:48:55 10° SE 16:52:18 41° ENE 16:55:45 10° N
Cosmos 2369 Rocket 3.2 16:48:03 10° WSW 16:53:24 43° NW 16:58:50 10° NNE
USA 290 3.7 16:51:12 10° N 16:53:37 19° NE 16:54:36 17° ENE
BREEZE M DEB (TANK) 4.1 16:38:14 10° W 16:54:48 77° SSW 16:58:58 10° ESE
CORIOLIS 4.1 16:50:54 10° SSE 16:56:14 82° ENE 17:01:36 10° NNW
SL-16 R/B 2.7 16:50:21 10° NNE 16:56:38 81° WNW 17:02:50 10° SSW
SAR-Lupe-5 4.4 16:54:24 10° NNE 16:57:18 77° ESE 17:00:21 10° S
Cosmos 44 4.4 16:52:52 10° NW 16:57:57 53° WSW 17:03:09 10° SSE
CZ-2D R/B 2.9 16:55:34 10° SSE 16:58:36 48° ENE 17:01:40 10° N
Cosmos 2151 3.6 16:55:19 10° N 16:59:01 30° ENE 17:02:42 10° SE
Cosmos 1867 4.4 16:54:55 10° NNW 16:59:45 31° NNE 17:03:27 15° E
Cosmos 2278 Rocket 4.4 16:58:03 10° NW 17:00:27 13° NNW 17:02:50 10° N
Cosmos 1602 Rocket 4.1 16:56:52 10° N 17:00:56 35° ENE 17:04:56 10° SE
Cosmos 1455 Rocket 3.6 16:56:50 10° SSW 17:01:06 59° WNW 17:05:25 10° N
Meteor 1-28 Rocket 3.2 16:58:43 10° N 17:02:04 67° WNW 17:05:23 10° SSW
Lacrosse 5 rocket 1.1 17:00:39 10° SW 17:04:23 68° SE 17:06:43 21° ENE
Cosmos 1782 3.0 17:01:06 10° SSE 17:04:29 39° E 17:07:26 13° NNE
Cosmos 1743 2.8 17:04:28 10° N 17:07:32 36° ENE 17:10:34 10° SE
Cosmos 1570 Rocket 4.0 17:02:45 10° NNW 17:08:08 77° ENE 17:13:27 10° SSE
Cosmos 2266 Rocket 4.2 17:03:17 10° N 17:09:15 46° ENE 17:15:04 10° SE
Cosmos 1943 Rocket 4.5 17:08:48 10° NW 17:10:06 11° NNW 17:11:25 10° N
Cosmos 1697 Rocket 4.1 17:07:14 10° SE 17:10:35 16° E 17:11:02 16° E
NOSS 2-2 (C) 2.6 17:09:33 10° SSW 17:12:48 67° SE 17:14:14 27° NE
YAOGAN 1 3.2 17:14:43 10° SE 17:18:27 30° ENE 17:22:12 10° N
COSMO-SKYMED 1 3.8 17:19:06 20° ESE 17:19:06 20° ESE 17:21:47 10° SE
SMAP 3.5 17:14:38 10° S 17:19:16 67° WSW 17:23:56 10° NNW
IRIDIUM 106 4.4 17:14:55 10° N 17:20:04 56° E 17:25:12 10° SSE
Cosmos 836 Rocket 4.5 17:16:11 10° NNW 17:21:28 87° ENE 17:26:43 10° SSE
PSLV R/B 4.2 17:21:32 23° E 17:22:55 28° ENE 17:26:24 10° N
Cosmos 1607 4.0 17:17:43 10° NW 17:23:54 60° NE 17:30:06 10° SE
Cosmos 1486 Rocket 4.3 17:19:24 10° S 17:24:19 44° ESE 17:27:28 21° NE
GEOS 3 Rocket 4.2 17:20:08 14° NE 17:24:41 55° NW 17:29:55 10° WSW
ERS-1 4.4 17:19:50 10° SSE 17:24:53 89° ENE 17:29:55 10° NNW
BREEZE-M DEB (TANK) 3.3 17:22:06 10° W 17:25:05 88° S 17:30:10 20° E
Landsat 7 3.9 17:21:26 10° S 17:26:05 75° WSW 17:30:45 10° NNW
Lacrosse 4 Rocket 2.0 17:22:15 10° SW 17:26:14 50° NW 17:29:11 17° NNE
ATLAS CENTAUR R/B 0.8 17:24:19 10° NNW 17:27:33 52° NE 17:28:21 39° E
Meteor 1-25 Rocket 4.4 17:23:21 10° N 17:29:01 49° ENE 17:34:37 10° SSE
SL-19 R/B 4.5 17:24:11 10° SE 17:29:09 42° ENE 17:34:21 10° N
NOSS 3-3 (A) 4.5 17:23:09 10° NW 17:30:23 77° NE 17:39:01 10° SE
Cosmos 724 4.3 17:27:19 10° NW 17:33:24 67° NE 17:39:18 10° SE
Cosmos 1825 Rocket 3.9 17:31:46 10° N 17:35:54 39° ENE 17:39:58 10° SE
AQUARIUS 4.2 17:31:32 10° S 17:35:56 77° WSW 17:40:22 10° NNW
Cosmos 1758 Rocket 3.8 17:31:47 10° NNW 17:36:07 71° W 17:40:22 10° S
SPOT 1/Viking Rocket 3.5 17:30:58 10° SSE 17:36:07 66° ENE 17:41:18 10° N
MOS 1 Rocket 3.4 17:32:47 10° SSE 17:37:33 85° WSW 17:42:39 10° NNW
CZ-4 R/B 4.2 17:34:52 10° SSE 17:38:47 70° ENE 17:42:44 10° N
NOAA 6 4.4 17:34:39 10° SE 17:39:23 39° ENE 17:44:06 10° N
Cosmos 2208 Rocket 4.0 17:34:16 10° NNW 17:39:27 82° WSW 17:44:37 10° SSE
Meteor 2-9 4.5 17:34:19 10° N 17:39:45 73° ENE 17:45:06 10° SSE
Cosmos 2098 Rocket 2.8 17:36:03 10° S 17:39:47 88° ESE 17:44:18 10° N
Cosmos 2084 4.2 17:36:03 10° WSW 17:40:06 45° NW 17:42:11 24° NNE
ARIANE 5 R/B 3.1 17:35:11 10° S 17:40:08 58° WSW 17:45:11 10° NNW
CZ-2D R/B 3.4 17:36:19 10° SSE 17:40:27 58° ENE 17:44:36 10° N
Cosmos 2084 Rocket 3.8 17:36:32 10° NW 17:40:34 42° NE 17:41:09 39° ENE
Cosmos 2297 Rocket 2.1 17:35:47 10° NNW 17:41:30 80° ENE 17:47:10 10° SSE
Cosmos 773 Rocket 4.1 17:37:52 10° NNW 17:43:05 79° WSW 17:48:18 10° SSE
CENTAUR R/B 3.0 17:38:13 10° WSW 17:43:57 57° NW 17:49:09 19° NE
SJ-7 4.2 17:49:28 54° NE 17:49:28 54° NE 17:52:54 10° N
USA 215 3.4 17:45:59 29° E 17:49:17 57° NNE 17:55:40 10° WNW
Cosmos 1655 Rocket 4.1 17:43:45 10° N 17:49:51 50° ENE 17:55:52 10° SSE
Meteor 1-5 Rocket 4.2 17:46:14 10° N 17:51:22 47° ENE 17:56:33 10° SE
Cosmos 2219 4.3 17:47:07 10° NNW 17:51:24 25° NE 17:51:24 25° NE
Cosmos 1900 4.4 17:48:32 10° NNW 17:53:32 55° NE 17:54:49 42° E
Cosmos 1656 3.6 17:49:46 10° SSW 17:55:23 89° ESE 17:58:48 25° NNE
Cosmos 1241 Rocket 4.4 17:53:39 10° SW 18:00:03 89° SE 18:03:23 30° NE
USA 281 4.3 18:06:13 25° NNE 18:06:13 25° NNE 18:10:53 10° N
Okean 1-7 Rocket 3.6 18:03:52 10° NNW 18:08:18 76° W 18:12:39 10° S
NOSS 2-2 (D) 3.5 18:06:34 10° SW 18:09:17 51° W 18:09:17 51° W
Cosmos 1606 Rocket 3.4 18:06:18 10° S 18:10:40 74° E 18:10:49 73° ENE
Cosmos 1980 Rocket 4.3 18:06:45 10° SSE 18:07:09 12° SSE 18:07:09 12° SSE
Cosmos 1461 4.4 18:08:24 10° S 18:10:11 23° S 18:10:11 23° S
NOSS 2-2 (E) 3.7 18:10:18 10° SW 18:12:46 45° WSW 18:12:46 45° WSW
BlueWalker 3 2.7 18:10:38 10° WNW 18:14:06 43° SW 18:14:18 43° SSW
Cosmos 783 Rocket 4.4 18:08:54 10° NNW 18:14:14 89° WSW 18:19:00 13° SSE
Resurs 1-3 3.5 18:11:06 10° SSE 18:15:24 81° WSW 18:19:45 10° NNW
Cosmos 2360 4.2 18:16:10 10° SSW 18:21:54 80° WNW 18:24:05 40° NNE
Meteor 2-20 4.4 18:17:27 10° S 18:23:30 63° E 18:25:00 48° NE
CZ-4C R/B 2.9 18:17:00 10° NW 18:23:53 87° SW 18:29:52 22° SE
SKYMED 2 4.0 18:23:50 37° N 18:25:20 61° WNW 18:29:36 10° SSW
Cosmos 2263 Rocket 2.6 18:21:11 10° NNW 18:25:49 46° NNE 18:25:49 46° NNE
USA 290 4.1 18:25:05 10° NW 18:27:24 30° W 18:27:24 30° W
NOSS 3-2 (C) 3.0 18:24:05 10° SSW 18:29:08 74° SE 18:29:21 72° ESE
Cosmos 1503 Rocket 3.9 18:23:58 10° SSW 18:29:15 84° WNW 18:30:10 62° NNE
Cosmos 1933 4.1 18:25:46 10° SSW 18:28:34 44° SW 18:28:34 44° SW
Cosmos 2227 Rocket 2.0 18:26:30 10° NNW 18:32:12 86° ENE 18:33:08 64° SE
IRAS Rocket 4.5 18:26:59 10° S 18:32:27 67° WSW 18:37:56 10° NNW
NOSS 3-2 (A) 3.7 18:27:34 10° WSW 18:32:40 55° NW 18:34:23 41° NNE
Resurs 01 Rocket 4.1 18:38:00 11° N 18:38:00 11° N 18:38:12 10° N
Cosmos 1354 Rocket 3.9 18:29:28 10° SSW 18:34:18 73° SSE 18:34:18 73° SSE
Cosmos 1726 Rocket 4.2 18:34:02 10° SSW 18:37:32 51° SSW 18:37:32 51° SSW
Lacrosse 5 rocket 3.0 18:38:11 10° W 18:40:19 26° WNW 18:40:19 26° WNW
Cosmos 1867 3.6 18:38:22 10° NW 18:43:50 76° SW 18:44:08 73° SSW
Cosmos 1697 Rocket 2.9 18:48:06 10° SSW 18:52:47 64° SSW 18:52:47 64° SSW
COSMO-SKYMED 1 4.0 18:55:26 33° WSW 18:55:26 33° WSW 18:58:04 10° SW
YAOGAN 1 4.2 18:50:26 10° SSW 18:54:15 32° W 18:58:06 10° NNW
ATLAS CENTAUR R/B 4.1 19:00:05 10° WNW 19:00:41 12° W 19:00:41 12° W
Lacrosse 4 Rocket 4.2 19:03:26 10° NW 19:04:41 12° NW 19:04:41 12° NW
USA 215 3.6 19:33:19 62° W 19:33:19 62° W 19:38:46 10° WNW
CENTAUR R/B 4.1 19:30:25 10° WNW 19:36:11 30° N 19:36:15 30° N
BREEZE-M DEB (TANK) 4.5 19:36:59 10° W 19:41:24 57° SSW 19:41:24 57° SSW
Cosmos 2263 Rocket 4.4 20:05:28 10° NW 20:07:31 20° WNW 20:07:31 20° WNW
